CZ-2D DEB

Satellite information

Favourite Embed

Satellite Type and Status

DEBRISIN ORBIT

Key statistics

Satellite CZ-2D DEB at a glance.

Uptime

7307

Days in orbit

Revolutions

≈ 15.5

Per day

Orbit

SSO

Sun Synchronous Orbit

Inclination

97.2

Latest

Satellite identification and parameters

Extended collection of information and parameters for CZ-2D DEB.

Object identification

Identified? True

Debris? True

Object name: CZ-2D DEB

International designator: 2005-024L

Object number (NORAD): 35272

Object ID (CCSDS): 35272

Country: PEOPLES REPUBLIC OF CHINA (PRC)

Current information (Y/N): Y

RCS size: SMALL

Orbital parameters

Period: 92.741 minutes

Inclination: 97.2048 deg

SMA: 6786.954 km

Apoapsis: 412.442 km

Periapsis: 405.197 km

RAAN: 212.1902 deg

Eccentricy: 0.0005337

Argument of periapsis: 349.8334 deg

Mean anomaly: 10.281 deg

Mean motion: 15.52710026 rev/day

Mean motion (dot): 0.00021899 rev/day2

B* drag term: 0.0003558 1/REarth

Two-line elements (TLE)

Creation date: July 6, 2025, 6:05 p.m.

Reference frame: TEME

Reference center: EARTH

Epoch: July 6, 2025, 7:20 a.m. UTC

TLE line 0: 0 CZ-2D DEB

TLE line 1: 1 35272U 05024L 25187.30589550 .00021899 00000-0 35580-3 0 9991

TLE line 2: 2 35272 97.2048 212.1902 0005337 349.8334 10.2810 15.52710026 85239

Live tracking on map

Real-time ground track for satellite CZ-2D DEB.

In-orbit conjunctions

A list of the most updated potential collisions computed for object CZ-2D DEB.

Target Orbit TCA Probability of collision Miss distance Type
COSMOS 2251 DEB LEO 2024-06-17 18:44:53 0.0001063449 426.0 (m) DEBRIS

Associated space launch

Chinese maneuverable military satellites, believed to have an interceptor / inspector / antisatellite mission. Launched from Jiuquan by the CZ-2D launch vehicle into 600 km, 97.7 deg inclination sun synchronous orbits.

CZ-2D DEB was lifted into orbit during the mission ‘Long March 2D | Shi Jian 7’, on board a Long March 2D space rocket.

The launch took place on July 5, 2005, 10:40 p.m. from Launch Area 4 (SLS-2 / 603).

For more information about the launch, click the button.

Launch to space Long March 2D | Shi Jian 7
Long March 2D | Shi Jian 7

Agency: N/A

Status: Launch Successful

Launch date: July 5, 2005, 10:40 p.m. UTC

Rocket: Long March 2D

Launch pad: Launch Area 4 (SLS-2 / 603)

Location: Jiuquan Satellite Launch Center, People's Republic of China

...

Latest news about this satellite

There are no fresh news available about this satellite. Check back as we update our databases every day.


Newsletter sign-up

Weekly statistics, charts and insights to help you stay on top of the space industry.